Location: Caltech
(34.1382°N, 118.1253°W)
Time: 01:02:42
(UTC-07:00)

Uosat F - Visible Passes

Search period start: 29 August 2014 00:00
Search period end: 08 September 2014 00:00
Orbit: 751 x 763 km, 98.7° (Epoch: 25 August)

Date Brightness Start Highest point End Pass type
(mag) Time Alt. Az. Time Alt. Az. Time Alt. Az.
29 Aug 11.6 04:59:05 10° NNE 05:04:01 59° ESE 05:08:57 10° S visible
30 Aug 13.2 04:20:51 10° NE 04:24:46 23° E 04:28:40 10° SSE visible
31 Aug 11.0 05:19:35 10° NNE 05:24:36 85° WNW 05:29:36 10° SSW visible
01 Sep 12.5 04:40:50 10° NNE 04:45:27 37° E 04:50:03 10° SSE visible
02 Sep 13.8 04:03:26 10° ENE 04:06:06 14° E 04:08:45 10° SE visible
02 Sep 11.3 05:40:16 10° N 05:45:07 52° WNW 05:49:57 10° SSW visible
03 Sep 11.5 05:01:07 10° NNE 05:06:05 61° ESE 05:11:01 10° S visible
04 Sep 13.2 04:22:50 10° NE 04:26:50 24° E 04:30:48 10° SSE visible
04 Sep 11.9 06:01:11 10° N 06:05:35 32° WNW 06:09:59 10° SW visible
05 Sep 11.0 05:21:37 10° N 05:26:39 82° WNW 05:31:39 10° SSW visible
06 Sep 12.4 04:42:50 10° NNE 04:47:30 38° E 04:52:09 10° SSE visible
07 Sep 13.8 04:05:21 10° ENE 04:08:09 15° E 04:10:57 10° SE visible
07 Sep 11.3 05:42:20 10° N 05:47:10 50° WNW 05:51:59 10° SSW visible
